Regional Weather Roundup
Issued by NWS

Home | Current Version | Previous Version | Text Only | Print | Product List | Glossary Off
Versions: 1 2 3 4 5 6 7 8 9 10 11 12 13 14 15 16 17 18 19 20 21 22 23 24 25 26 27 28 29 30 31 32 33 34 35 36 37 38 39 40 41 42 43 44 45 46 47 48 49 50

000
ASUS43 KLOT 280508
RWRIL

ILLINOIS REGIONAL WEATHER ROUNDUP
NATIONAL WEATHER SERVICE CHICAGO/ROMEOVILLE IL
1200 AM CDT SAT MAR 28 2015

NOTE: "FAIR" INDICATES FEW OR NO CLOUDS BELOW 12,000 FEET WITH NO
SIGNIFICANT WEATHER AND/OR OBSTRUCTIONS TO VISIBILITY.

* THESE STATIONS ARE NOT UNDER NWS QUALITY CONTROL. THEY ALSO MAY NOT
  REPORT WEATHER SUCH AS PRECIPITATION OR FOG.

ILZ001-002-007-009-015-016-024-280600-
NORTHWEST ILLINOIS

CITY           SKY/WX    TMP DP  RH WIND       PRES   REMARKS
MOLINE         CLEAR     24  15  68 CALM      30.21S
STERLING*      CLEAR     21  16  79 CALM      30.22R
SAVANNA*       CLEAR     24  13  62 CALM      30.22R
$$

ILZ003-004-008-010-011-017-018-280600-
NORTH CENTRAL ILLINOIS

CITY           SKY/WX    TMP DP  RH WIND       PRES   REMARKS
ROCKFORD       CLEAR     23  14  68 E3        30.25R
FREEPORT*      CLEAR     17  11  78 SE5       30.24R WCI  10
ROCHELLE*      CLEAR     21  16  81 SE6       30.23R WCI  14
DE KALB*       CLEAR     19  14  78 CALM      30.22R
PERU*          CLEAR     24  18  75 E6        30.24R WCI  17
$$

ILZ005-006-012>014-019>023-280600-
NORTHEAST ILLINOIS

CITY           SKY/WX    TMP DP  RH WIND       PRES   REMARKS
CHICAGO-OHARE  PTCLDY    23  14  68 N6        30.21S WCI  16
CHICAGO-MIDWAY PTCLDY    27  14  58 N9        30.22S WCI  18
AURORA         CLEAR     22  13  68 CALM      30.23R
LANSING*       CLEAR     25   6  44 NE13      30.21S WCI  14
JOLIET*        CLEAR     23  15  70 CALM      30.23S
WAUKEGAN       CLEAR     19  13  77 NW3       30.21S
DUPAGE AIRPORT CLEAR     20  12  71 N5        30.21S WCI  13
KANKAKEE*      CLEAR     23  17  75 CALM      30.22S
WHEELING       CLEAR     21  13  71 NW5       30.23S WCI  15
MORRIS*        CLEAR     21  16  79 CALM      30.23S
ROMEOVILLE*    CLEAR     23  13  66 CALM      30.22S
NORTHERLY ISL    N/A     26  10  50 N14         N/A  WCI  15
$$

LMZ740>746-280600-
SOUTHERN LAKE MICHIGAN

STATION/POSITION SKY/WX   TEMP    WIND        PRES    VSBY  WAVE
                          AIR SEA DIR/SP/G                  HT/PER
                          (F)     (DEG/KT/KT) (MB)    (MI)  (FT/S)
HARRISON CRIB              27      10/ 18/ 24   N/A
BURNHAM HARBOR             26     350/ 12/ 17   N/A
CALUMET HARBOR             27     350/ 13/ 18 1022.0R
BURNS HARBOR               26      20/ 20/ 24 1023.0R
MICHIGAN CITY              24     360/ 21/ 24   N/A
$$

ILZ025>027-034>036-040-047-049-050-058-095>099-280600-
WEST-CENTRAL ILLINOIS

CITY           SKY/WX    TMP DP  RH WIND       PRES   REMARKS
QUINCY         PTCLDY    30  11  45 E6        30.19S WCI  24
GALESBURG*     CLEAR     25  14  64 CALM      30.21S
MACOMB*        CLEAR     25  20  80 E5        30.23S WCI  19
JACKSONVILLE*  CLEAR     28  20  70 CALM      30.21S
PITTSFIELD*    CLEAR     30  24  78 CALM      30.21S
$$

ILZ028>032-037-038-041>044-048-051>054-059>061-280600-
CENTRAL ILLINOIS

CITY           SKY/WX    TMP DP  RH WIND       PRES   REMARKS
PONTIAC        CLEAR     21  18  88 E3        30.24R
BLOOMINGTON    CLEAR     22  18  85 E9        30.22R WCI  12
DECATUR        CLEAR     25  18  74 NE8       30.21R WCI  16
PEORIA         CLEAR     28  13  53 CALM      30.22R
LACON*         CLEAR     22  15  74 CALM      30.22R
LINCOLN*       CLEAR     26  18  73 N5        30.22S WCI  20
SPRINGFIELD    CLEAR     27  16  63 CALM      30.22R
TAYLORVILLE    CLEAR     28  23  80 CALM      30.21S
$$

ILZ033-039-045-046-055>057-062-063-280600-
EAST-CENTRAL ILLINOIS

CITY           SKY/WX    TMP DP  RH WIND       PRES   REMARKS
CHAMPAIGN      CLEAR     23  16  74 NE8       30.21R WCI  14
DANVILLE*      CLEAR     22  16  79 N7        30.19S WCI  13
RANTOUL*       CLEAR     25  18  76 NE8       30.21S WCI  16
MATTOON        CLEAR     25  17  72 NE7       30.19R WCI  17
PARIS*         CLEAR     25  18  74 CALM      30.22R
$$

ILZ079-100>102-280600-
SOUTHWEST ILLINOIS

CITY           SKY/WX    TMP DP  RH WIND       PRES   REMARKS
ALTON          CLEAR     29  20  70 CALM      30.22S
BELLEVILLE     CLEAR     30  21  68 NE5       30.20S WCI  25
CAHOKIA*       CLEAR     32  19  58 CALM      30.22R
SPARTA*        CLEAR     30  22  72 NE6       30.22S WCI  24
$$

ILZ064>066-069>071-074>076-080>082-084>086-088>090-092>094-280600-
SOUTH-CENTRAL ILLINOIS

CITY           SKY/WX    TMP DP  RH WIND       PRES   REMARKS
CARBONDALE     CLEAR     27  23  85 CALM      30.21R
CAIRO*         PTCLDY    31  26  84 CALM      30.21S
EFFINGHAM*     CLEAR     29  16  57 CALM      30.21F
MARION         CLEAR     30  25  80 CALM      30.21S
MT. VERNON     CLEAR     25  18  74 CALM      30.21S
CENTRALIA*     CLEAR     30  19  61 CALM      30.21S
SALEM*         CLEAR     29  23  81 CALM      30.21S
METROPOLIS*    CLEAR     29  25  83 CALM      30.19S
$$

ILZ067-068-072-073-078-083-087-091-280600-
SOUTHEAST ILLINOIS

CITY           SKY/WX    TMP DP  RH WIND       PRES   REMARKS
LAWRENCEVILLE  CLEAR     28  20  71 NE7       30.21R WCI  21
FLORA*         CLEAR     29  22  76 CALM      30.21S
FAIRFIELD*     CLEAR     29  21  71 N3        30.20R
HARRISBURG*    CLEAR     31  21  67 N5        30.22S WCI  26
ROBINSON*      CLEAR     26  19  76 NE7       30.22R WCI  18
CARMI*         CLEAR     29  21  73 N3        30.20S
$$

ABBREVIATIONS USED IN REMARKS
   TC - TEMPERATURE IN CELSIUS
  WCI - WIND CHILL INDEX
   HX - HEAT INDEX
  VSB - VISIBILITY
$$



USA.gov is the U.S. government's official web portal to all federal, state and local government web resources and services.